カタログに戻る

NAXING-4B

運用中科学VLEO
NORAD 63523·PAYLOAD·🇨🇳 China
この衛星名は、まだ公式ソースで確認されていません。

打ち上げ Apr 29, 2021 から Wenchang Space Launch Site

Loading…

次のパス (今後24時間)

TLE

最新Source: Space-Track

元期: Sep 14, 2026, 21:51 UTC

1 63523U 21035E   26257.91087592  .00082370  00000-0  65071-3 0  9995
2 63523  41.4529  93.1603 0001473 349.4314  10.6497 15.70358038 82480

AllMySatでNAXING-4Bをリアルタイム追跡

Download on the App Store